Simultaneous Nadir Overpasses (SNOs) Predictions

Prediction of SNOs between LANDSAT-8 and NOAA-19 Satellite Orbit:

Table of predicted SNOs for the next 14.0 days since TLE Epoch: 3/5/2022
Index Date (LANDSAT-8) Time (LANDSAT-8) Lat,Lon (LANDSAT-8) SZA (LANDSAT-8 ) Date (NOAA-19) Time (NOAA-19) Lat,Lon (NOAA-19) SZA (NOAA-19 ) Distance(km) Time Diff (sec)
1 03/06/2022 03:55:22 80.73, 155.52 87.73 03/06/2022 03:54:48 80.72, 155.43 87.71 1.81 34
2 03/06/2022 04:44:49 -80.72, -36.88 92.29 03/06/2022 04:45:44 -80.71, -36.88 92.29 1.74 55
3 03/08/2022 10:18:32 80.72, 59.70 86.86 03/08/2022 10:18:49 80.72, 59.52 86.85 3.18 17
4 03/10/2022 15:52:16 -80.72, 156.17 94.02 03/10/2022 15:51:49 -80.73, 156.07 94.02 2.27 27
5 03/10/2022 16:41:42 80.72, -36.17 85.98 03/10/2022 16:42:49 80.71, -36.07 86.00 2.09 67
6 03/12/2022 21:25:58 80.73,-107.05 85.16 03/12/2022 21:24:51 80.72,-106.94 85.14 2.30 67
7 03/12/2022 22:15:26 -80.71, 60.27 94.91 03/12/2022 22:15:50 -80.72, 60.30 94.88 1.91 24
8 03/15/2022 03:49:08 80.72, 157.00 84.26 03/15/2022 03:48:52 80.73, 157.04 84.26 0.95 16
9 03/15/2022 04:38:32 -80.81, -34.32 95.60 03/15/2022 04:39:43 -80.62, -32.66 95.57 36.41 71
10 03/17/2022 09:22:51 -80.73,-106.27 96.59 03/17/2022 09:21:53 -80.73,-106.21 96.61 1.22 58



Historial Predications of SNOs between LANDSAT-8 and NOAA-19
